Regional Weather Roundup
Issued by NWS

Home | Current Version | Previous Version | Text Only | Print | Product List | Glossary Off
Versions: 1 2 3 4 5 6 7 8 9 10 11 12 13 14 15 16 17 18 19 20 21 22 23 24 25 26 27 28 29 30 31 32 33 34 35 36 37 38 39 40 41 42 43 44 45 46 47 48 49 50

000
ASUS43 KMPX 310810
RWRMN
WEATHER ROUNDUP FOR MINNESOTA
NATIONAL WEATHER SERVICE TWIN CITIES/CHANHASSEN MN
200 AM CST SAT JAN 31 2015


NOTE: "FAIR" INDICATES FEW OR NO CLOUDS BELOW 12,000 FEET WITH NO
SIGNIFICANT WEATHER AND/OR OBSTRUCTIONS TO VISIBILITY. N/A MEANS
CURRENT SKY AND/OR WEATHER CONDITIONS ARE NOT AVAILABLE.

MNZ060>063-068>070-310900-
   Twin Cities Metro

CITY           SKY/WX    TMP DP  RH WIND       PRES   REMARKS
TWIN CITIES    PTCLDY    21  16  81 CALM      30.13S
ST PAUL        CLOUDY    22  19  89 S6        30.15R WCI  14
CRYSTAL        CLEAR     20  16  84 CALM      30.11S
BLAINE         CLOUDY    28  25  86 CALM      30.12R
LAKEVILLE      CLEAR     25  21  86 CALM      30.12R
EDEN PRAIRIE   CLEAR     23  19  85 SW6       30.12R WCI  16
SOUTH ST PAUL  CLEAR     18  16  89 CALM      30.14R
LAKE ELMO      CLOUDY    27  23  86 S3        30.14R
$$
MNZ001>005-007-008-013>017-022>024-027-028-310900-
   Northwest Minnesota

CITY           SKY/WX    TMP DP  RH WIND       PRES   REMARKS
BEMIDJI        CLOUDY    21  18  87 NW13      30.12R WCI   9
HALLOCK        MOCLDY    10   1  67 N20G26    30.27R WCI  -8
ROSEAU         CLOUDY    16   9  73 NW15      30.21R WCI   1
WARROAD        FLURRIES  12   9  85 NW16G22   30.19S WCI  -4
THIEF RVR FALL CLOUDY    16  12  86 N15       30.20R WCI   1
CROOKSTON      CLOUDY    18  14  86 N21G26    30.24R WCI   1
FOSSTON        CLOUDY    18  16  93 N13G18    30.16R WCI   4
DETROIT LAKES  CLOUDY    23  21  93 N13       30.14R WCI  11
MOORHEAD       CLOUDY    21  19  93 N22       30.20R WCI   5
PARK RAPIDS    CLOUDY    24  20  84 N13G24    30.08S WCI  12
MAHNOMEN       CLOUDY    19  16  88 N17       30.14F WCI   3
$$
MNZ006-009>011-018-025>026-310900-
   North Central Minnesota

CITY           SKY/WX    TMP DP  RH WIND       PRES   REMARKS
BAUDETTE       CLOUDY    14   9  80 NW15      30.15R WCI  -1
FLAG ISLAND    MOCLDY     9   3  78 NW18      30.18S WCI -10
INTL FALLS     CLOUDY    16  11  80 N15       30.11S WCI   1
WASKISH        CLOUDY    18  16  93 N8        30.14S WCI   7
BIG FORK       CLOUDY    21  16  79 N6        30.09S WCI  14
LONGVILLE      CLOUDY    25  19  80 NW6       30.09R WCI  18
GRAND RAPIDS   CLOUDY    19  14  79 N3        30.07S
CRANE LAKE     CLOUDY    16  12  86 NW5       30.11S WCI   9
ORR            CLOUDY    18  10  73 CALM      30.06S
COOK           CLOUDY    18  12  79 W7        30.08S WCI   8
WALKER         CLOUDY    23  19  86 N9G16     30.10R WCI  13
$$
MNZ012-019>021-037-310900-
   Northeast Minnesota

CITY           SKY/WX    TMP DP  RH WIND       PRES   REMARKS
DULUTH         CLOUDY    19  12  74 W6        30.06S WCI  11
ELY            CLOUDY    16  10  79 W5        30.06S WCI   9
HIBBING        CLOUDY    18   8  65 CALM      30.07S
EVELETH        CLOUDY    18  10  73 CALM      30.08S
DULUTH HARBOR  CLOUDY    21  12  68 CALM      30.13S
TWO HARBORS    CLOUDY    19  12  73 CALM      30.07S
SILVER BAY     CLOUDY    18  10  73 SW3       30.07R
GRAND MARAIS     N/A     17  11  77 W5        30.10F WCI  10
G MARAIS ARPRT CLOUDY    10   7  85 W3        30.00F
$$
MNZ029>031-032-039>041-046>048-054>057-064-310900-
   West Central Minnesota

CITY           SKY/WX    TMP DP  RH WIND       PRES   REMARKS
FERGUS FALLS   CLOUDY    23  21  93 N13G22    30.19R WCI  11
WHEATON        CLOUDY    25  23  93 N16       30.19R WCI  12
MORRIS         CLEAR     21  19  93 NW9       30.14R WCI  11
ALEXANDRIA     CLEAR     22  19  89 NW7       30.11R WCI  13
ELBOW LAKE     CLOUDY    23  21  93 NW10      30.13S WCI  12
WADENA         CLOUDY    21  21 100 N12       30.11R WCI   9
GLENWOOD       CLEAR     19  19 100 W5        30.11R WCI  13
APPLETON       CLEAR     27  23  86 N15       30.15R WCI  15
BENSON         CLEAR     21  19  93 N7        30.13R WCI  13
ORTONVILLE     PTCLDY    25  21  86 N10       30.16R WCI  15
MADISON        CLEAR     30  27  86 N14       30.15R WCI  20
WILLMAR        FAIR      25  23  93 NW6       30.12S FOG     WCI  18
$$
MNZ033>034-036-042>043-049>051-058-059-310900-
   Central Minnesota

CITY           SKY/WX    TMP DP  RH WIND       PRES   REMARKS
ST CLOUD       CLEAR     16  14  92 CALM      30.10F
SAUK CENTRE    FAIR      18  17  96 W5        30.10S FOG     WCI  11
PAYNESVILLE    CLEAR     17  17  99 SW6       30.10F FOG     WCI   8
AITKIN         CLOUDY    27  19  74 CALM      30.07S
PINE RIVER     CLOUDY    25  19  80 CALM      30.12R
BRAINERD       CLOUDY    24  19  81 W3        30.09S
STAPLES        PTCLDY    16  16 100 NW7       30.10R WCI   6
LONG PRAIRIE   FAIR      21  19  93 CALM      30.09F
LITTLE FALLS   CLOUDY    19  16  86 CALM      30.10S
LITCHFIELD     CLEAR     25  23  93 CALM      30.11S
BUFFALO        CLEAR     19  17  93 CALM      30.13R
MAPLE LAKE     CLEAR     18  17  95 CALM      30.11F
$$
MNZ037-044-045-052-053-310900-
   East Central Minnesota

CITY           SKY/WX    TMP DP  RH WIND       PRES   REMARKS
PRINCETON      CLOUDY    27  21  80 CALM      30.10F
MORA           CLOUDY    23  18  80 CALM      30.11F
CAMBRIDGE      CLOUDY    28  19  69 S3        30.09F
RUSH CITY      CLOUDY    24  19  82 CALM      30.11F
MOOSE LAKE     CLOUDY    21  14  73 CALM      30.09R
HINCKLEY       CLOUDY    23  18  80 CALM      30.10F
CLOQUET        CLOUDY    19  12  73 CALM      30.08R
MCGREGOR       CLOUDY    25  19  80 CALM      30.09S
$$
MNZ071>073-080-081-089-090-097-098-310900-
   Southwest Minnesota

CITY           SKY/WX    TMP DP  RH WIND       PRES   REMARKS
MONTEVIDEO     CLEAR     25  25 100 N8        30.14S WCI  16
GRANITE FALLS  CLEAR     28  26  94 NW10      30.15R WCI  18
CANBY          CLEAR     29  27  90 NW9       30.16R WCI  21
MARSHALL       CLEAR     27  21  80 NW9       30.14R WCI  17
REDWOOD FALLS  CLEAR     25  23  92 W7        30.12S WCI  17
OLIVIA         CLEAR     21  19  93 W3        30.11S FOG
PIPESTONE      FAIR      28  27  93 CALM      30.10S
WINDOM         CLEAR     27  25  93 CALM      30.11S
WORTHINGTON    CLEAR     28  23  80 SW9       30.12R WCI  20
JACKSON        CLEAR     30  25  80 SW13      30.12S WCI  20
TRACY          CLEAR     29  26  89 W6        30.12S WCI  23
SLAYTON        CLEAR     27  25  90 CALM      30.11S
$$
MNZ065>067-074>077-082>085-091>093-310900-
   South Central Minnesota

CITY           SKY/WX    TMP DP  RH WIND       PRES   REMARKS
MANKATO        CLEAR     27  19  74 SW6       30.12F WCI  20
NEW ULM        CLEAR     25  21  86 SW5       30.12S WCI  19
ST JAMES       CLEAR     28  25  86 CALM      30.13S
FAIRMONT       CLEAR     27  21  80 SW7       30.12S WCI  19
GLENCOE        CLEAR     25  24  96 SW3       30.11S
FARIBAULT      CLEAR     23  19  86 S5        30.13S WCI  17
OWATONNA       CLEAR     25  21  86 SW7       30.12F WCI  17
WASECA         CLEAR     25  21  86 SW8       30.14S WCI  16
ALBERT LEA     CLEAR     27  21  80 SW9       30.13S WCI  17
$$
MNZ078>079-086>088-094>096-310900-
   Southeast Minnesota

CITY           SKY/WX    TMP DP  RH WIND       PRES   REMARKS
ROCHESTER      CLEAR     23  16  74 S14       30.13F WCI  11
RED WING       CLOUDY    21  18  86 SE3       30.15R
STANTON        CLEAR     26  21  83 S5        30.12S WCI  20
DODGE CENTER   PTCLDY    23  19  86 SW12      30.12F WCI  12
WINONA         CLEAR     28  18  64 CALM      30.17F
AUSTIN         CLEAR     21  18  86 S6        30.14F WCI  14
PRESTON        CLEAR     22  15  75 SW15      30.14F WCI   9
$$
ABBREVIATIONS USED IN REMARKS
   TC - TEMPERATURES IN CELSIUS
  WCI - WIND CHILL INDEX
   HX - HEAT INDEX
  VSB - VISIBILITY
$$


USA.gov is the U.S. government's official web portal to all federal, state and local government web resources and services.